Hourly Data Report for October 29, 2015

All times are specified in Local Standard Time (LST). Add 1 hour to adjust for Daylight Saving Time where and when it is observed.

ARVIAT A
NUNAVUT

61°05'38.000" N
94°04'18.000" W
10.40 m
2300427
71174
YEK

Download Data

Hourly Data (October 2015)
Hourly Data Report for October 29, 2015
Temp Definition
°C
Dew Point Temp Definition
°C
Rel Hum Definition
%
Wind Dir Definition
10's deg

Wind Spd Definition
km/h
Visibility Definition
km
Stn Press Definition
kPa
Hmdx Definition


Wind Chill Definition


Weather Definition


TIME
00:00 Legend Double Dagger -12.6 -13.5 93 34 26 16.1 101.12   -22 LegendNANA
01:00 Legend Double Dagger -11.5 -12.3 94 34 22 16.1 101.07   -20 LegendNANA
02:00 Legend Double Dagger -10.5 -11.2 95 34 21 16.1 101.06   -19 LegendNANA
03:00 Legend Double Dagger -9.9 -10.6 95 33 24 16.1 101.07   -18 Snow
04:00 Legend Double Dagger -9.2 -10.0 94 34 22 16.1 101.05   -17 LegendNANA
05:00 Legend Double Dagger -8.4 -9.5 92 34 26 16.1 101.05   -17 LegendNANA
06:00 Legend Double Dagger -8.1 -8.9 94 34 24 16.1 101.05   -16 Snow
07:00 Legend Double Dagger -7.9 -8.7 94 33 24 16.1 101.06   -16 Snow
08:00 Legend Double Dagger -8.1 -8.9 94 32 18 16.1 101.06   -15 Snow
09:00 Legend Double Dagger -8.3 -9.0 94 32 22 16.1 101.03   -16 Snow
10:00 Legend Double Dagger -8.2 -9.3 92 33 24 16.1 101.00   -16 Snow
11:00 Legend Double Dagger -8.4 -9.3 93 33 24 16.1 100.97   -17 LegendNANA
12:00 Legend Double Dagger -8.1 -9.0 93 34 26 16.1 100.98   -16 LegendNANA
13:00 Legend Double Dagger -9.4 -10.6 91 34 32 16.1 100.97   -19 LegendNANA
14:00 Legend Double Dagger -10.2 -11.7 89 33 22 16.1 101.00   -18 LegendNANA
15:00 Legend Double Dagger -10.6 -12.1 89 32 24 16.1 101.01   -19 LegendNANA
16:00 Legend Double Dagger -11.2 -12.5 90 34 24 16.1 100.98   -20 LegendNANA
17:00 Legend Double Dagger -11.7 -13.1 89 35 26 16.1 101.00   -21 Snow
18:00 Legend Double Dagger -14.3 -16.1 86 35 30 16.1 101.01   -25 LegendNANA
19:00 Legend Double Dagger -16.1 -17.8 87 34 26 16.1 100.99   -27 LegendNANA
20:00 Legend Double Dagger -16.7 -18.4 87 34 24 16.1 101.01   -27 LegendNANA
21:00 Legend Double Dagger -17.5 -19.2 87 34 22 16.1 101.02   -28 LegendNANA
22:00 Legend Double Dagger -18.0 -19.5 88 34 24 16.1 100.98   -29 LegendNANA
23:00 Legend Double Dagger -17.7 -19.2 88 34 18 16.1 100.95   -27 LegendNANA

Notes on Data Quality.

Legend

  • E = Estimated
  • M = Missing
  • NA = Not Available
  • ‡ = Partner data that is not subject to review by the National Climate Archives
Date modified: